Louisville Bowman, KY

9:57 PM EST on November 20, 2017 (GMT -0500)
Bowman

Weather History for KLOU - January, 2011

Change the Weather History Date:

Sunday, January 2, 2011

  Actual Average Record
Temperature  
Mean Temperature 28 °F 35 °F  
Max Temperature 34 °F 43 °F 71 °F (2006)
Min Temperature 22 °F 27 °F 7 °F (1979)
Degree Days  
Heating Degree Days 37 30  
Month to date heating degree days 56 60  
Since 1 July heating degree days 1795 1724  
Cooling Degree Days 0 0  
Month to date cooling degree days 0 0  
Year to date cooling degree days 0 0  
Moisture  
Dew Point 14 °F    
Average Humidity 56    
Maximum Humidity 74    
Minimum Humidity 38    
Precipitation  
Precipitation 0.00 in 0.13 in 1.18 in (1952)
Month to date precipitation 0.53 0.27  
Year to date precipitation 0.53 0.27  
Sea Level Pressure  
Sea Level Pressure 30.30 in    
Wind  
Wind Speed 5 mph (West)    
Max Wind Speed 14 mph    
Max Gust Speed 17 mph    
Visibility 10 miles    
Events      
T = Trace of Precipitation, MM = Missing Value Source: NWS Daily Summary

Daily Weather History Graph

Daily Weather History Graph

Search for Another Location

Airport or City:

Trip Planner

Search our weather history database for the weather conditions in past years. The results will help you decide how hot, cold, wet, or windy it might be!

Date:

Astronomy

Jan. 02, 2011 Rise Set
Actual Time 7:59 AM EST 5:33 PM EST
Civil Twilight 7:30 AM EST 6:03 PM EST
Nautical Twilight 6:57 AM EST 6:36 PM EST
Astronomical Twilight 6:24 AM EST 7:08 PM EST
Moon 6:31 AM EST (1/2) 4:05 PM EST (1/2)
Length of Visible Light 10h 33m
Length of Day
9h 34m
Waning Crescent, 3% of the Moon is Illuminated
Jan 2
Waning Crescent
Jan 4
New
Jan 12
First Quarter
Jan 19
Full
Jan 26
Last Quarter

Hourly Weather History & Observations

Time (EST) Temp. Windchill Dew Point Humidity Pressure Visibility Wind Dir Wind Speed Gust Speed Precip Events Conditions
12:53 AM 27.0 °F 21.6 °F 14.0 °F 58% 30.22 in 10.0 mi WNW 4.6 mph - N/A   Clear
1:53 AM 27.0 °F 20.5 °F 14.0 °F 58% 30.22 in 10.0 mi WNW 5.8 mph - N/A   Clear
2:53 AM 27.0 °F 18.7 °F 14.0 °F 58% 30.24 in 10.0 mi WNW 8.1 mph - N/A   Clear
3:53 AM 25.0 °F 20.7 °F 14.0 °F 63% 30.25 in 10.0 mi WNW 3.5 mph - N/A   Clear
4:53 AM 24.8 °F - 14.0 °F 64% 30.23 in 10.0 mi Calm Calm - N/A   Clear
5:53 AM 24.1 °F - 12.9 °F 62% 30.26 in 10.0 mi Calm Calm - N/A   Clear
6:53 AM 24.1 °F - 15.1 °F 69% 30.28 in 10.0 mi Calm Calm - N/A   Clear
7:53 AM 23.0 °F 17.0 °F 15.1 °F 72% 30.29 in 10.0 mi WSW 4.6 mph - N/A   Clear
8:53 AM 24.1 °F 19.7 °F 16.0 °F 71% 30.30 in 10.0 mi WSW 3.5 mph - N/A   Clear
9:53 AM 26.6 °F 19.1 °F 15.8 °F 64% 30.29 in 10.0 mi WSW 6.9 mph - N/A   Clear
10:53 AM 28.9 °F 20.4 °F 12.9 °F 51% 30.34 in 10.0 mi West 9.2 mph - N/A   Clear
11:53 AM 30.0 °F 21.1 °F 14.0 °F 51% 30.32 in 10.0 mi SW 10.4 mph - N/A   Clear
12:53 PM 30.9 °F 21.7 °F 12.9 °F 47% 30.31 in 10.0 mi West 11.5 mph - N/A   Clear
1:53 PM 32.0 °F 23.6 °F 14.0 °F 48% 30.31 in 10.0 mi WSW 10.4 mph - N/A   Clear
2:53 PM 33.1 °F 26.1 °F 12.9 °F 43% 30.31 in 10.0 mi WSW 8.1 mph 16.1 mph N/A   Clear
3:53 PM 33.1 °F 25.5 °F 12.0 °F 42% 30.31 in 10.0 mi WNW 9.2 mph - N/A   Clear
4:53 PM 33.1 °F 26.1 °F 10.9 °F 40% 30.31 in 10.0 mi West 8.1 mph - N/A   Clear
5:53 PM 28.9 °F 22.8 °F 10.0 °F 45% 30.32 in 10.0 mi West 5.8 mph - N/A   Clear
6:53 PM 28.9 °F 25.2 °F 10.9 °F 47% 30.34 in 10.0 mi WSW 3.5 mph - N/A   Clear
7:53 PM 27.0 °F 23.0 °F 12.9 °F 56% 30.35 in 10.0 mi West 3.5 mph - N/A   Clear
8:53 PM 26.1 °F 21.9 °F 14.0 °F 60% 30.34 in 10.0 mi West 3.5 mph - N/A   Clear
9:53 PM 24.1 °F - 14.0 °F 65% 30.35 in 10.0 mi Calm Calm - N/A   Clear
10:53 PM 25.0 °F - 16.0 °F 69% 30.35 in 10.0 mi Calm Calm - N/A   Clear
11:53 PM 25.0 °F - 16.0 °F 69% 30.34 in 10.0 mi Calm Calm - N/A   Clear